Location: Ajisawe
(8.4333°N, 4.3833°E)
Time: 12:43:11
(UTC+00:00)

A-11 Canister half - All Passes

Search period start: 18 April 2021 00:00
Search period end: 28 April 2021 00:00
Orbit: 1515 x 1685 km, 47.2° (Epoch: 17 April)

Date Brightness Start Highest point End Pass type
(mag) Time Alt. Az. Time Alt. Az. Time Alt. Az.
18 Apr - 03:40:10 10° N 03:47:48 24° NE 03:55:28 10° E visible
18 Apr - 05:43:04 10° NW 05:53:14 81° SW 06:03:23 10° SE daylight
18 Apr - 07:52:51 10° W 07:58:05 15° SW 08:03:19 10° SSW daylight
18 Apr - 16:37:47 10° S 16:43:56 20° SE 16:50:03 10° E daylight
18 Apr - 18:39:14 10° SW 18:48:28 79° NW 18:57:52 10° NE visible
18 Apr - 20:48:47 10° WNW 20:54:06 16° NW 20:59:31 10° N visible
19 Apr - 03:17:30 10° N 03:24:46 22° NE 03:32:02 10° E visible
19 Apr - 05:20:07 10° NW 05:30:17 87° SW 05:40:28 10° SE daylight
19 Apr - 07:29:10 10° W 07:35:07 17° SW 07:41:04 10° SSW daylight
19 Apr - 16:15:24 10° SSE 16:21:01 17° SE 16:26:36 10° E daylight
19 Apr - 18:16:19 10° SW 18:25:35 85° NW 18:34:57 10° NE visible
19 Apr - 20:25:17 10° W 20:31:04 18° NW 20:36:57 10° N visible
20 Apr - 02:54:52 10° N 03:01:43 20° NE 03:08:35 10° E visible
20 Apr - 04:57:10 10° NW 05:07:20 87° NE 05:17:32 10° SE visible
20 Apr - 07:05:36 10° W 07:12:09 19° SW 07:18:43 10° S daylight
20 Apr - 15:53:07 10° SSE 15:58:05 16° SE 16:03:02 10° E daylight
20 Apr - 17:53:26 10° SW 18:02:42 88° SE 18:12:03 10° NE visible
20 Apr - 20:01:51 10° W 20:08:03 19° NW 20:14:22 10° N visible
21 Apr - 02:32:17 10° N 02:38:40 18° NE 02:45:04 10° E visible
21 Apr - 04:34:15 10° NW 04:44:23 81° NE 04:54:35 10° SE visible
21 Apr - 06:42:08 10° W 06:49:11 21° SW 06:56:16 10° S daylight
21 Apr - 15:30:58 10° SSE 15:35:09 14° SE 15:39:19 10° ESE daylight
21 Apr - 17:30:33 10° SW 17:39:48 82° SE 17:49:07 10° NE daylight
21 Apr - 19:38:29 10° W 19:45:03 21° NW 19:51:44 10° N visible
22 Apr - 02:09:45 10° N 02:15:36 17° NE 02:21:28 10° ENE visible
22 Apr - 04:11:21 10° NW 04:21:26 76° NE 04:31:36 10° SE visible
22 Apr - 06:18:43 10° W 06:26:14 24° SW 06:33:46 10° S daylight
22 Apr - 15:09:05 10° SSE 15:12:13 12° SE 15:15:20 10° ESE daylight
22 Apr - 17:07:41 10° SW 17:16:55 76° SE 17:26:10 10° NE daylight
22 Apr - 19:15:09 10° W 19:22:03 23° NW 19:29:05 10° N visible
23 Apr - 01:47:16 10° N 01:52:31 15° NE 01:57:47 10° ENE visible
23 Apr - 03:48:28 10° NNW 03:58:29 70° NE 04:08:36 10° SE visible
23 Apr - 05:55:24 10° WNW 06:03:17 26° SW 06:11:13 10° S daylight
23 Apr - 14:47:57 10° SE 14:49:16 10° SE 14:50:34 10° ESE daylight
23 Apr - 16:44:51 10° SSW 16:54:02 70° SE 17:03:14 10° NE daylight
23 Apr - 18:51:51 10° W 18:59:04 25° NW 19:06:24 10° N visible
24 Apr - 01:24:54 10° N 01:29:26 14° NE 01:33:59 10° ENE visible
24 Apr - 03:25:35 10° NNW 03:35:31 65° NE 03:45:35 10° SE visible
24 Apr - 05:32:07 10° WNW 05:40:20 29° SW 05:48:36 10° S daylight
24 Apr - 16:22:01 10° SSW 16:31:09 64° SE 16:40:15 10° NE daylight
24 Apr - 18:28:37 10° W 18:36:06 28° NW 18:43:42 10° NNE visible
25 Apr - 01:02:41 10° NNE 01:06:20 12° NE 01:10:01 10° ENE visible
25 Apr - 03:02:44 10° NNW 03:12:34 60° NE 03:22:32 10° SE visible
25 Apr - 05:08:52 10° WNW 05:17:22 31° SW 05:25:57 10° S visible
25 Apr - 15:59:12 10° SSW 16:08:16 58° SE 16:17:16 10° NE daylight
25 Apr - 18:05:23 10° WSW 18:13:08 30° NW 18:20:59 10° NNE visible
26 Apr - 00:40:46 10° NNE 00:43:13 11° NE 00:45:42 10° NE visible
26 Apr - 02:39:54 10° NNW 02:49:37 55° NE 02:59:28 10° SE visible
26 Apr - 04:45:40 10° WNW 04:54:26 34° SW 05:03:18 10° S visible
26 Apr - 15:36:24 10° SSW 15:45:23 53° SE 15:54:16 10° NE daylight
26 Apr - 17:42:12 10° WSW 17:50:11 33° NW 17:58:15 10° NNE daylight
27 Apr - 02:17:03 10° NNW 02:26:39 51° NE 02:36:23 10° ESE visible
27 Apr - 04:22:31 10° WNW 04:31:29 37° SW 04:40:35 10° SSE visible
27 Apr - 15:13:39 10° SSW 15:22:30 49° SE 15:31:15 10° ENE daylight
27 Apr - 17:19:02 10° WSW 17:27:15 36° NW 17:35:30 10° NNE daylight
